Powrót do katalogu

DMSP 5D-2 F13 DEB

AktywnySSO
NORAD 40473·DEBRIS·🇺🇸 United States

Wystrzelony Mar 24, 1995 z Vandenberg Space Force Base

Loading…

Następne Przeloty (najbliższe 24 godziny)

TLE

ŚwieżeSource: Space-Track

Epoka: Sep 14, 2026, 09:37 UTC

1 40473U 95015BR  26257.40128677  .00001537  00000-0  10017-2 0  9992
2 40473  98.7036  95.8737 0122090 124.8763 236.3952 14.00183886585048

Śledź DMSP 5D-2 F13 DEB w czasie rzeczywistym z AllMySat

Download on the App Store